San Jose, Costa Rica

2:56 PM CST on August 21, 2017 (GMT -0600)
Juan Santamaria International

Weather History for MROC - January, 2013

Change the Weather History Date:

Tuesday, January 8, 2013

  Actual Average Record
Temperature  
Mean Temperature 76 °F -  
Max Temperature 85 °F 80 °F 86 °F (2014)
Min Temperature 68 °F 63 °F 31 °F (2016)
Cooling Degree Days 12    
Growing Degree Days 26 (Base 50)    
Moisture  
Dew Point 55 °F    
Average Humidity 48    
Maximum Humidity 68    
Minimum Humidity 24    
Precipitation  
Precipitation 0.00 in 0.01 in - ()
Sea Level Pressure  
Sea Level Pressure 29.88 in    
Wind  
Wind Speed 11 mph ()    
Max Wind Speed 17 mph    
Max Gust Speed 25 mph    
Visibility 8.3 miles    
Events      
Averages and records for this station are not official NWS values.
T = Trace of Precipitation, MM = Missing Value Source: Averaged Metar Reports

Daily Weather History Graph

Daily Weather History Graph

Search for Another Location

Airport or City:

Trip Planner

Search our weather history database for the weather conditions in past years. The results will help you decide how hot, cold, wet, or windy it might be!

Date:

Astronomy

Jan. 08, 2013 Rise Set
Actual Time 5:56 AM CST 5:31 PM CST
Civil Twilight 5:33 AM CST 5:53 PM CST
Nautical Twilight 5:07 AM CST 6:19 PM CST
Astronomical Twilight 4:41 AM CST 6:45 PM CST
Moon 2:32 AM CST (1/8) 2:30 PM CST (1/8)
Length of Visible Light 12h 19m
Length of Day
11h 34m
Waning Crescent, 13% of the Moon is Illuminated
Jan 8
Waning Crescent
Jan 11
New
Jan 18
First Quarter
Jan 26
Full
Feb 3
Last Quarter

Hourly Weather History & Observations

Time (CST) Temp. Heat Index Dew Point Humidity Pressure Visibility Wind Dir Wind Speed Gust Speed Precip Events Conditions
12:00 AM 69.8 °F - 57.2 °F 64% 29.92 in - East 11.5 mph - N/A   Clear
1:00 AM 69.8 °F - 55.4 °F 60% 29.89 in - East 10.4 mph - N/A   Clear
2:00 AM 71.6 °F - 53.6 °F 53% 29.86 in - East 13.8 mph 25.3 mph N/A   Clear
3:00 AM 71 °F - 54 °F 45%  in 12 mi East 12.7 mph - -  
3:00 AM 71.6 °F - 53.6 °F 53% 29.86 in - East 12.7 mph 25.3 mph N/A   Clear
4:00 AM 71.6 °F - 53.6 °F 53% 29.87 in - East 11.5 mph 23.0 mph N/A   Clear
5:00 AM 69.8 °F - 55.4 °F 60% 29.88 in - East 10.4 mph - N/A   Clear
6:00 AM 69 °F - 54 °F 49% 29.76 in 12 mi ESE 10.4 mph - -  
6:00 AM 69.8 °F - 53.6 °F 56% 29.89 in - ESE 10.4 mph 21.9 mph N/A   Clear
7:00 AM 71.6 °F - 55.4 °F 57% 29.92 in - ESE 10.4 mph 21.9 mph N/A   Clear
8:00 AM 75.2 °F - 53.6 °F 47% 29.94 in - East 11.5 mph - N/A   Clear
9:00 AM 79 °F - 52 °F 28% 29.80 in 12 mi East 13.8 mph - -   Scattered Clouds
9:00 AM 78.8 °F - 51.8 °F 39% 29.95 in - East 13.8 mph - N/A   Clear
10:00 AM 82.4 °F 81.4 °F 53.6 °F 37% 29.96 in - East 9.2 mph - N/A   Clear
11:00 AM 82.4 °F 81.7 °F 55.4 °F 39% 29.95 in - East 12.7 mph - N/A   Clear
12:00 PM 83 °F - 56 °F 29% 29.72 in 12 mi East 11.5 mph - -   Scattered Clouds
12:00 PM 82.4 °F 81.7 °F 55.4 °F 39% 29.92 in 6.2 mi East 11.5 mph 23.0 mph N/A   Partly Cloudy
1:00 PM 84.2 °F 83.0 °F 55.4 °F 37% 29.89 in 6.2 mi East 11.5 mph - N/A   Partly Cloudy
2:00 PM 84.2 °F 82.8 °F 53.6 °F 35% 29.86 in 6.2 mi East 12.7 mph - N/A   Partly Cloudy
3:00 PM 83 °F - 52 °F 24% 29.75 in 12 mi ENE 13.8 mph - -   Scattered Clouds
3:00 PM 84.2 °F - 51.8 °F 33% 29.87 in 6.2 mi ENE 13.8 mph - N/A   Partly Cloudy
4:00 PM 82.4 °F 81.4 °F 53.6 °F 37% 29.84 in 6.2 mi ENE 11.5 mph 23.0 mph N/A   Partly Cloudy
5:00 PM 80.6 °F 80.3 °F 53.6 °F 39% 29.88 in 6.2 mi ENE 15.0 mph - N/A   Partly Cloudy
6:00 PM 75 °F - 57 °F 43% 29.74 in 12 mi ENE 11.5 mph - -   Scattered Clouds
6:00 PM 75.2 °F - 57.2 °F 53% 29.90 in 6.2 mi ENE 11.5 mph - N/A   Partly Cloudy
7:00 PM 73.4 °F - 60.8 °F 65% 29.91 in 6.2 mi ESE 11.5 mph - N/A   Partly Cloudy
8:00 PM 71.6 °F - 59.0 °F 64% 29.95 in 6.2 mi East 5.8 mph - N/A   Partly Cloudy
9:00 PM 71 °F - 58 °F 56% 29.79 in 12 mi East 17.3 mph - -   Scattered Clouds
9:00 PM 71.6 °F - 59.0 °F 64% 29.97 in 6.2 mi East 17.3 mph - N/A   Partly Cloudy
10:00 PM 69.8 °F - 59.0 °F 68% 29.97 in 6.2 mi East 16.1 mph - N/A   Partly Cloudy
11:00 PM 69.8 °F - 59.0 °F 68% 29.97 in 6.2 mi East 16.1 mph - N/A   Partly Cloudy